Flag for U.S.A. Weather past 2 weeks in Oberlin, Ohio, U.S.A.

Now
29 °F

Overcast.


Feels Like: 29 °F
Forecast: 23 / 35 °F
Wind: No wind

Location: Lorain County Regional Airport

Current Time: Dec 21, 2014 at 8:46:53 AM

Latest Report: Dec 21, 2014 at 7:53 AM


Visibility: 8 mi

Pressure: 30.34 "Hg

Humidity: 79%

Dew point: 23 °F

Location of OberlinLocation

Historic Weather in Oberlin — Graph

°F

Oberlin temperature yesterday

Maximum temperature yesterday: 30 °F (at 12:53 PM)
Minimum temperature yesterday: 26 °F (at 11:53 PM)
Average temperature yesterday: 29 °F

Past Weeks' High & Low Weather Summary

 TemperatureHumidityPressure
High52 °F (Dec 15, 2:53 PM)97% (Dec 13, 3:53 PM)30.69 "Hg (Dec 13, 3:53 PM)
Low21 °F (Dec 11, 7:53 AM)37% (Dec 8, 1:53 PM)29.71 "Hg (Dec 16, 7:53 AM)
Average34 °F80%30.19 "Hg
* Reported Dec 6 7:53 AM — Dec 21 7:53 AM, Oberlin, Weather by CustomWeather, © 2014

Note: Actual official high and low records may vary slightly from our data, if they occured in-between our weather recording intervals... More about our weather records

Advertising

Oberlin weather history for previous 24 hours

 ConditionsComfort  
Time TempWeatherWind HumidityBarometerVisibility
7:53 AM
Dec 21
29 °FOvercast.No wind79%30.34 "Hg8 mi
6:53 AM29 °FOvercast.No wind82%30.34 "Hg7 mi
5:53 AM28 °FIce fog.No wind89%30.34 "Hg6 mi
4:53 AM28 °FIce fog.No wind89%30.32 "Hg6 mi
3:53 AM28 °FIce fog.No wind89%30.32 "Hg6 mi
2:53 AM28 °FIce fog.No wind89%30.32 "Hg6 mi
1:53 AM27 °FIce fog.No wind92%30.31 "Hg5 mi
12:53 AM26 °FIce fog.No wind88%30.31 "Hg5 mi
11:53 PM
Dec 20
26 °FIce fog.3 mph92%30.31 "Hg6 mi
10:53 PM28 °FLight snow. Ice fog.5 mph85%30.31 "Hg5 mi
9:53 PM29 °FOvercast.No wind82%30.32 "Hg9 mi
8:53 PM29 °FOvercast.No wind82%30.32 "Hg9 mi
7:53 PM29 °FOvercast.3 mph82%30.32 "Hg10 mi
6:53 PM29 °FOvercast.No wind79%30.31 "Hg10 mi
5:53 PM30 °FOvercast.No wind69%30.30 "Hg10 mi
4:53 PM30 °FOvercast.No wind66%30.30 "Hg10 mi
3:53 PM30 °FOvercast.3 mph66%30.29 "Hg10 mi
2:53 PM30 °FOvercast.No wind69%30.28 "Hg10 mi
1:53 PM30 °FOvercast.3 mph69%30.29 "Hg10 mi
12:53 PM30 °FOvercast.No wind69%30.29 "Hg10 mi
11:53 AM29 °FOvercast.5 mph72%30.32 "Hg10 mi
10:53 AM29 °FOvercast.7 mph72%30.33 "Hg10 mi
9:53 AM29 °FOvercast.3 mph69%30.34 "Hg10 mi
8:53 AM28 °FOvercast.3 mph78%30.32 "Hg10 mi
Weather by CustomWeather, © 2014

See weather overviewHow to use our weather pages